Time,TemperatureF,DewpointF,PressureIn,WindDirection,WindDirectionDegrees,WindSpeedMPH,WindSpeedGustMPH,Humidity,HourlyPrecipIn,Conditions,Clouds,dailyrainin,SoftwareType,DateUTC
2013-01-29 00:10:00,48.3,40.0,29.99,NNE,23,2.0,3.0,73,0.00,,,0.00,weatherlink.com 1.10,2013-01-28 22:10:00,
2013-01-29 00:25:00,48.7,40.0,29.99,North,355,1.0,5.0,73,0.00,,,0.00,weatherlink.com 1.10,2013-01-28 22:25:00,
2013-01-29 00:40:00,48.5,41.0,29.99,NNE,20,0.0,5.0,74,0.00,,,0.00,weatherlink.com 1.10,2013-01-28 22:40:00,
2013-01-29 00:55:00,48.2,41.0,29.99,NNE,17,0.0,3.0,75,0.00,,,0.00,weatherlink.com 1.10,2013-01-28 22:55:00,
2013-01-29 01:10:00,48.0,41.0,29.99,NNW,344,2.0,4.0,76,0.00,,,0.00,weatherlink.com 1.10,2013-01-28 23:10:00,
2013-01-29 01:25:00,47.7,41.0,29.99,NNE,13,0.0,3.0,77,0.00,,,0.00,weatherlink.com 1.10,2013-01-28 23:25:00,
2013-01-29 01:40:00,47.7,40.0,29.99,NNE,27,2.0,6.0,76,0.00,,,0.00,weatherlink.com 1.10,2013-01-28 23:40:00,
2013-01-29 01:55:00,47.9,40.0,29.99,ENE,61,2.0,7.0,75,0.00,,,0.00,weatherlink.com 1.10,2013-01-28 23:55:00,
2013-01-29 02:10:00,47.8,41.0,29.99,North,360,2.0,6.0,76,0.00,,,0.00,weatherlink.com 1.10,2013-01-29 00:10:00,
2013-01-29 02:25:00,47.9,40.0,29.99,NE,50,3.0,6.0,75,0.00,,,0.00,weatherlink.com 1.10,2013-01-29 00:25:00,
2013-01-29 02:40:00,47.9,40.0,29.99,NNE,18,2.0,5.0,74,0.00,,,0.00,weatherlink.com 1.10,2013-01-29 00:40:00,
2013-01-29 02:55:00,47.9,39.0,29.99,North,360,0.0,4.0,72,0.00,,,0.00,weatherlink.com 1.10,2013-01-29 00:55:00,
2013-01-29 03:10:00,47.9,39.0,30.00,NNE,12,1.0,4.0,72,0.00,,,0.00,weatherlink.com 1.10,2013-01-29 01:10:00,
2013-01-29 03:25:00,47.9,39.0,30.00,ENE,59,1.0,6.0,72,0.00,,,0.00,weatherlink.com 1.10,2013-01-29 01:25:00,
2013-01-29 03:40:00,47.6,39.0,30.00,NE,37,2.0,4.0,73,0.00,,,0.00,weatherlink.com 1.10,2013-01-29 01:40:00,
2013-01-29 03:55:00,47.4,39.0,30.00,NE,45,0.0,5.0,73,0.00,,,0.00,weatherlink.com 1.10,2013-01-29 01:55:00,
2013-01-29 04:10:00,47.2,39.0,30.00,NNE,17,0.0,4.0,73,0.00,,,0.00,weatherlink.com 1.10,2013-01-29 02:10:00,
2013-01-29 04:25:00,47.1,38.0,30.00,NNE,21,0.0,5.0,72,0.00,,,0.00,weatherlink.com 1.10,2013-01-29 02:25:00,
2013-01-29 04:40:00,47.0,38.0,30.00,NNE,12,2.0,4.0,71,0.00,,,0.00,weatherlink.com 1.10,2013-01-29 02:40:00,
2013-01-29 04:55:00,47.4,38.0,29.99,North,355,0.0,4.0,70,0.00,,,0.00,weatherlink.com 1.10,2013-01-29 02:55:00,
2013-01-29 05:10:00,47.2,38.0,30.00,North,5,3.0,4.0,70,0.00,,,0.00,weatherlink.com 1.10,2013-01-29 03:10:00,
2013-01-29 05:25:00,47.0,37.0,30.00,North,351,1.0,4.0,69,0.00,,,0.00,weatherlink.com 1.10,2013-01-29 03:25:00,
2013-01-29 05:40:00,47.0,37.0,30.00,NE,47,0.0,5.0,68,0.00,,,0.00,weatherlink.com 1.10,2013-01-29 03:40:00,
2013-01-29 05:55:00,46.9,37.0,30.01,NE,38,0.0,4.0,68,0.00,,,0.00,weatherlink.com 1.10,2013-01-29 03:55:00,
2013-01-29 06:10:00,46.3,36.0,30.01,NE,41,0.0,4.0,68,0.00,,,0.00,weatherlink.com 1.10,2013-01-29 04:10:00,
2013-01-29 06:26:00,46.4,36.0,30.02,NNE,15,1.0,3.0,66,0.00,,,0.00,weatherlink.com 1.10,2013-01-29 04:26:00,
2013-01-29 06:41:00,46.7,35.0,30.02,NNE,14,0.0,5.0,65,0.00,,,0.00,weatherlink.com 1.10,2013-01-29 04:41:00,
2013-01-29 06:56:00,46.4,36.0,30.02,ENE,57,2.0,4.0,66,0.00,,,0.00,weatherlink.com 1.10,2013-01-29 04:56:00,
2013-01-29 07:11:00,46.1,36.0,30.02,North,355,2.0,5.0,67,0.00,,,0.00,weatherlink.com 1.10,2013-01-29 05:11:00,
2013-01-29 07:26:00,46.1,36.0,30.03,North,5,5.0,6.0,68,0.00,,,0.00,weatherlink.com 1.10,2013-01-29 05:26:00,
2013-01-29 07:41:00,46.5,36.0,30.03,NNE,32,3.0,8.0,67,0.00,,,0.00,weatherlink.com 1.10,2013-01-29 05:41:00,
2013-01-29 07:56:00,46.8,36.0,30.04,ENE,57,3.0,6.0,67,0.00,,,0.00,weatherlink.com 1.10,2013-01-29 05:56:00,
2013-01-29 08:11:00,47.0,36.0,30.04,NNE,14,0.0,6.0,67,0.00,,,0.00,weatherlink.com 1.10,2013-01-29 06:11:00,
2013-01-29 08:26:00,47.1,37.0,30.05,North,355,3.0,6.0,68,0.00,,,0.00,weatherlink.com 1.10,2013-01-29 06:26:00,
2013-01-29 08:41:00,47.3,37.0,30.05,NNE,14,4.0,8.0,67,0.00,,,0.00,weatherlink.com 1.10,2013-01-29 06:41:00,
2013-01-29 08:56:00,47.8,38.0,30.06,NNE,24,0.0,5.0,68,0.00,,,0.00,weatherlink.com 1.10,2013-01-29 06:56:00,
2013-01-29 09:11:00,47.9,38.0,30.07,NNW,333,2.0,3.0,68,0.00,,,0.00,weatherlink.com 1.10,2013-01-29 07:11:00,
2013-01-29 09:26:00,48.1,39.0,30.07,NNW,327,0.0,5.0,70,0.00,,,0.00,weatherlink.com 1.10,2013-01-29 07:26:00,
2013-01-29 09:41:00,48.4,39.0,30.07,North,5,7.0,8.0,70,0.00,,,0.00,weatherlink.com 1.10,2013-01-29 07:41:00,
2013-01-29 09:56:00,48.7,39.0,30.08,North,355,3.0,7.0,70,0.00,,,0.00,weatherlink.com 1.10,2013-01-29 07:56:00,
2013-01-29 10:11:00,49.0,40.0,30.07,ENE,60,0.0,7.0,70,0.00,,,0.00,weatherlink.com 1.10,2013-01-29 08:11:00,
2013-01-29 10:26:00,49.3,40.0,30.08,North,5,1.0,9.0,70,0.00,,,0.00,weatherlink.com 1.10,2013-01-29 08:26:00,
2013-01-29 10:41:00,49.4,40.0,30.08,NNE,20,4.0,10.0,70,0.00,,,0.00,weatherlink.com 1.10,2013-01-29 08:41:00,
2013-01-29 10:56:00,49.2,40.0,30.08,NNW,343,3.0,12.0,70,0.00,,,0.00,weatherlink.com 1.10,2013-01-29 08:56:00,
2013-01-29 11:11:00,49.2,40.0,30.08,NNE,19,4.0,11.0,71,0.00,,,0.00,weatherlink.com 1.10,2013-01-29 09:11:00,
2013-01-29 11:26:00,49.2,40.0,30.08,NNW,345,7.0,10.0,71,0.00,,,0.00,weatherlink.com 1.10,2013-01-29 09:26:00,
2013-01-29 11:41:00,49.3,40.0,30.09,NW,326,11.0,16.0,70,0.00,,,0.00,weatherlink.com 1.10,2013-01-29 09:41:00,
2013-01-29 11:56:00,48.8,40.0,30.09,East,80,2.0,13.0,73,0.00,,,0.00,weatherlink.com 1.10,2013-01-29 09:56:00,
2013-01-29 12:11:00,48.8,40.0,30.09,NNW,327,6.0,8.0,73,0.00,,,0.00,weatherlink.com 1.10,2013-01-29 10:11:00,
2013-01-29 12:26:00,48.5,41.0,30.08,ENE,71,2.0,13.0,75,0.00,,,0.00,weatherlink.com 1.10,2013-01-29 10:26:00,
2013-01-29 12:41:00,48.7,41.0,30.08,NNE,20,3.0,9.0,75,0.00,,,0.00,weatherlink.com 1.10,2013-01-29 10:41:00,
2013-01-29 12:56:00,48.4,41.0,30.08,ENE,66,10.0,13.0,75,0.00,,,0.00,weatherlink.com 1.10,2013-01-29 10:56:00,
2013-01-29 13:11:00,48.3,40.0,30.07,NNE,22,6.0,10.0,74,0.00,,,0.00,weatherlink.com 1.10,2013-01-29 11:11:00,
2013-01-29 13:26:00,48.4,40.0,30.07,ENE,63,3.0,11.0,74,0.00,,,0.00,weatherlink.com 1.10,2013-01-29 11:26:00,
2013-01-29 13:41:00,48.3,40.0,30.07,ENE,58,2.0,8.0,74,0.00,,,0.00,weatherlink.com 1.10,2013-01-29 11:41:00,
2013-01-29 13:56:00,48.4,40.0,30.07,North,5,0.0,8.0,74,0.00,,,0.00,weatherlink.com 1.10,2013-01-29 11:56:00,
2013-01-29 14:11:00,48.3,41.0,30.07,NE,51,1.0,8.0,75,0.00,,,0.00,weatherlink.com 1.10,2013-01-29 12:11:00,
2013-01-29 14:26:00,47.9,41.0,30.06,North,355,4.0,9.0,76,0.00,,,0.00,weatherlink.com 1.10,2013-01-29 12:26:00,
2013-01-29 14:41:00,47.8,41.0,30.06,NNE,17,5.0,9.0,78,0.00,,,0.00,weatherlink.com 1.10,2013-01-29 12:41:00,
2013-01-29 14:56:00,47.5,41.0,30.06,NNE,19,3.0,9.0,77,0.00,,,0.00,weatherlink.com 1.10,2013-01-29 12:56:00,
2013-01-29 15:11:00,47.5,41.0,30.06,NNE,30,0.0,8.0,78,0.00,,,0.00,weatherlink.com 1.10,2013-01-29 13:11:00,
2013-01-29 15:26:00,47.7,41.0,30.05,NNE,26,5.0,10.0,78,0.00,,,0.00,weatherlink.com 1.10,2013-01-29 13:26:00,
2013-01-29 15:41:00,48.1,41.0,30.05,NE,49,7.0,9.0,76,0.00,,,0.00,weatherlink.com 1.10,2013-01-29 13:41:00,
2013-01-29 15:56:00,48.3,40.0,30.05,NNE,30,6.0,13.0,74,0.00,,,0.00,weatherlink.com 1.10,2013-01-29 13:56:00,
2013-01-29 16:11:00,48.4,41.0,30.05,NE,42,4.0,9.0,75,0.00,,,0.00,weatherlink.com 1.10,2013-01-29 14:11:00,
2013-01-29 16:26:00,48.0,40.0,30.05,NE,35,5.0,11.0,75,0.00,,,0.00,weatherlink.com 1.10,2013-01-29 14:26:00,
2013-01-29 16:41:00,48.2,40.0,30.05,North,360,8.0,10.0,74,0.00,,,0.00,weatherlink.com 1.10,2013-01-29 14:41:00,
2013-01-29 16:56:00,48.0,40.0,30.05,North,351,0.0,10.0,75,0.00,,,0.00,weatherlink.com 1.10,2013-01-29 14:56:00,
2013-01-29 17:11:00,47.6,40.0,30.05,NE,53,2.0,7.0,76,0.00,,,0.00,weatherlink.com 1.10,2013-01-29 15:11:00,
2013-01-29 17:26:00,47.5,41.0,30.05,NNE,22,1.0,9.0,77,0.00,,,0.00,weatherlink.com 1.10,2013-01-29 15:26:00,
2013-01-29 17:41:00,47.3,40.0,30.06,North,355,2.0,8.0,77,0.00,,,0.00,weatherlink.com 1.10,2013-01-29 15:41:00,
2013-01-29 17:56:00,47.1,41.0,30.06,NW,326,1.0,7.0,78,0.00,,,0.00,weatherlink.com 1.10,2013-01-29 15:56:00,
2013-01-29 18:11:00,46.8,40.0,30.06,NNW,338,2.0,7.0,78,0.00,,,0.00,weatherlink.com 1.10,2013-01-29 16:11:00,
2013-01-29 18:26:00,46.7,41.0,30.07,NW,309,2.0,8.0,79,0.00,,,0.00,weatherlink.com 1.10,2013-01-29 16:26:00,
2013-01-29 18:42:00,46.6,41.0,30.07,North,355,3.0,8.0,80,0.00,,,0.00,weatherlink.com 1.10,2013-01-29 16:42:00,
2013-01-29 18:57:00,46.5,41.0,30.07,NE,55,1.0,7.0,81,0.00,,,0.00,weatherlink.com 1.10,2013-01-29 16:57:00,
2013-01-29 19:12:00,46.5,41.0,30.07,NNE,16,0.0,5.0,82,0.00,,,0.00,weatherlink.com 1.10,2013-01-29 17:12:00,
2013-01-29 19:27:00,46.2,41.0,30.08,NE,46,7.0,7.0,82,0.00,,,0.00,weatherlink.com 1.10,2013-01-29 17:27:00,
2013-01-29 19:42:00,45.9,41.0,30.08,NE,34,1.0,8.0,83,0.00,,,0.00,weatherlink.com 1.10,2013-01-29 17:42:00,
2013-01-29 19:57:00,45.9,41.0,30.08,ENE,58,5.0,8.0,83,0.00,,,0.00,weatherlink.com 1.10,2013-01-29 17:57:00,
2013-01-29 20:12:00,45.9,41.0,30.08,NNE,29,4.0,6.0,83,0.00,,,0.00,weatherlink.com 1.10,2013-01-29 18:12:00,
2013-01-29 20:27:00,45.9,41.0,30.08,NNE,21,1.0,8.0,83,0.00,,,0.00,weatherlink.com 1.10,2013-01-29 18:27:00,
2013-01-29 20:42:00,45.9,41.0,30.09,North,9,1.0,8.0,82,0.00,,,0.00,weatherlink.com 1.10,2013-01-29 18:42:00,
2013-01-29 20:57:00,45.9,41.0,30.08,NE,52,2.0,8.0,82,0.00,,,0.00,weatherlink.com 1.10,2013-01-29 18:57:00,
2013-01-29 21:27:00,46.1,41.0,30.09,NNE,27,1.0,5.0,81,0.00,,,0.00,weatherlink.com 1.10,2013-01-29 19:27:00,
2013-01-29 21:42:00,45.9,40.0,30.09,NE,53,4.0,7.0,81,0.00,,,0.00,weatherlink.com 1.10,2013-01-29 19:42:00,
2013-01-29 21:57:00,45.8,40.0,30.09,NNW,338,1.0,5.0,81,0.00,,,0.00,weatherlink.com 1.10,2013-01-29 19:57:00,
2013-01-29 22:12:00,45.5,40.0,30.09,NNE,15,5.0,5.0,81,0.00,,,0.00,weatherlink.com 1.10,2013-01-29 20:12:00,
2013-01-29 22:27:00,45.8,39.0,30.09,NNE,19,4.0,8.0,77,0.00,,,0.00,weatherlink.com 1.10,2013-01-29 20:27:00,
2013-01-29 22:42:00,45.8,39.0,30.09,North,355,0.0,6.0,78,0.00,,,0.00,weatherlink.com 1.10,2013-01-29 20:42:00,
2013-01-29 22:57:00,45.4,39.0,30.09,North,5,0.0,4.0,79,0.00,,,0.00,weatherlink.com 1.10,2013-01-29 20:57:00,
2013-01-29 23:12:00,45.3,38.0,30.09,NNE,30,0.0,5.0,76,0.00,,,0.00,weatherlink.com 1.10,2013-01-29 21:12:00,
2013-01-29 23:27:00,45.2,38.0,30.09,NNE,14,2.0,5.0,75,0.00,,,0.00,weatherlink.com 1.10,2013-01-29 21:27:00,
2013-01-29 23:42:00,45.0,38.0,30.09,NE,35,1.0,3.0,76,0.00,,,0.00,weatherlink.com 1.10,2013-01-29 21:42:00,
2013-01-29 23:57:00,44.7,38.0,30.09,NNE,20,0.0,2.0,78,0.00,,,0.00,weatherlink.com 1.10,2013-01-29 21:57:00,